SCP
0 0 0 0 0 0 0 0 0 0 0 0 0 0 0 0 0 0 0 0 0 0 0 0 0 0 0 0 0 0 0 0 0 0 0 0 0 0 0 0 0 0 0
0 0 0 0 0 0 0 0 0 0 0 0 0 0 0 0 0 0 0 0 0 0 0 0 0 0 0 0 0 0 0 0 0 0 0 0 0 0 0 0 0 0 0
0 0 0 0 0 0 0 0 0 0 0 0 0 0 0 0 0 0 0 0 0 0 0 0 0 0 0 0 0 0 0 0 0 0 0 0 0 0 0 0 0 0 0
0 0 0 0 0 0 0 0 0 0 0 0 0 0 0 0 0 0 0 0 0 0 0 0 0 0 0 0 0 0 0 0 0 0 0 0 0 0 0 0 0 0 0
0 0 0 0 0 0 0 0 0 0 0 0 0 0 0 0 0 0 0 0 0 0 0 0 0 0 0 0 0 0 0 0 0 0 0 0 0 0 0 0 0 0 0
0 0 0 0 0 0 0 0 0 0 0 0 0 0 0 0 0 0 0 0 0 0 0 0 0 0 0 0 0 0 0 0 0 0 0 0 0 0 0 0 0 0 0
0 0 0 0 0 0 0 0 0 0 0 0 0 0 0 0 0 0 0 0 0 0 0 0 0 0 0 0 0 0 0 0 0 0 0 0 0 0 0 0 0 0 0
0 0 0 0 0 0 0 0 0 0 0 0 0 0 0 0 0 0 0 0 0 0 0 0 0 0 0 0 0 0 0 0 0 0 0 0 0 0 0 0 0 0 0
0 0 0 0 0 0 0 0 0 0 0 0 0 0 0 0 0 0 0 0 0 0 0 0 0 0 0 0 0 0 0 0 0 0 0 0 0 0 0 0 0 0 0
0 0 0 0 0 0 0 0 0 0 0 0 0 0 0 0 0 0 0 0 0 0 0 0 0 0 0 0 0 0 0 0 0 0 0 0 0 0 0 0 0 0 0
0 0 0 0 0 0 0 0 0 0 0 0 0 0 0 0 0 0 0 0 0 0 0 0 0 0 0 0 0 0 0 0 0 0 0 0 0 0 0 0 0 0 0
0 0 0 0 0 0 0 0 0 0 0 0 0 0 0 0 0 0 0 0 0 0 0 0 0 0 0 0 0 0 0 0 0 0 0 0 0 0 0 0 0 0 0
0 0 0 0 0 0 0 0 0 0 0 0 0 0 0 0 0 0 0 0 0 0 0 0 0 0 0 0 0 0 0 0 0 0 0 0 0 0 0 0 0 0 0
0 0 0 0 0 0 0 0 0 0 0 0 0 0 0 0 0 0 0 0 0 0 0 0 0 0 0 0 0 0 0 0 0 0 0 0 0 0 0 0 0 0 0
0 0 0 0 0 0 0 0 0 0 0 0 0 0 0 0 0 0 0 0 0 0 0 0 0 0 0 0 0 0 0 0 0 0 0 0 0 0 0 0 0 0 0
0 0 0 0 0 0 0 0 0 0 0 0 0 0 0 0 0 0 0 0 0 0 0 0 0 0 0 0 0 0 0 0 0 0 0 0 0 0 0 0 0 0 0
0 0 0 0 0 0 0 0 0 0 0 0 0 0 0 0 0 0 0 0 0 0 0 0 0 0 0 0 0 0 0 0 0 0 0 0 0 0 0 0 0 0 0
0 0 0 0 0 0 0 0 0 0 0 0 0 0 0 0 0 0 0 0 0 0 0 0 0 0 0 0 0 0 0 0 0 0 0 0 0 0 0 0 0 0 0
0 0 0 0 0 0 0 0 0 0 0 0 0 0 0 0 0 0 0 0 0 0 0 0 0 0 0 0 0 0 0 0 0 0 0 0 0 0 0 0 0 0 0
0 0 0 0 0 0 0 0 0 0 0 0 0 0 0 0 0 0 0 0 0 0 0 0 0 0 0 0 0 0 0 0 0 0 0 0 0 0 0 0 0 0 0
0 0 0 0 0 0 0 0 0 0 0 0 0 0 0 0 0 0 0 0 0 0 0 0 0 0 0 0 0 0 0 0 0 0 0 0 0 0 0 0 0 0 0
0 0 0 0 0 0 0 0 0 0 0 0 0 0 0 0 0 0 0 0 0 0 0 0 0 0 0 0 0 0 0 0 0 0 0 0 0 0 0 0 0 0 0
0 0 0 0 0 0 0 0 0 0 0 0 0 0 0 0 0 0 0 0 0 0 0 0 0 0 0 0 0 0 0 0 0 0 0 0 0 0 0 0 0 0 0
0 0 0 0 0 0 0 0 0 0 0 0 0 0 0 0 0 0 0 0 0 0 0 0 0 0 0 0 0 0 0 0 0 0 0 0 0 0 0 0 0 0 0
0 0 0 0 0 0 0 0 0 0 0 0 0 0 0 0 0 0 0 0 0 0 0 0 0 0 0 0 0 0 0 0 0 0 0 0 0 0 0 0 0 0 0
0 0 0 0 0 0 0 0 0 0 0 0 0 0 0 0 0 0 0 0 0 0 0 0 0 0 0 0 0 0 0 0 0 0 0 0 0 0 0 0 0 0 0
Wind_Speed
4 3 3 3 3 3 3 4 4 5 5 5 5 6 6 6 6 5 5 14 17 18 19 19 20 20 20 20 19 19 18 18 18 18 17 17 16 16 15 14 14 13 12
4 4 4 3 3 3 3 3 4 4 4 4 5 6 6 6 6 7 6 9 17 20 21 22 22 22 22 22 22 22 21 21 21 20 20 19 19 18 18 17 17 16 15
4 4 3 3 3 4 4 3 4 4 4 4 5 6 6 7 7 7 7 6 7 16 21 23 24 24 25 25 25 24 24 23 23 23 23 22 22 21 21 20 19 19 18
3 3 3 3 3 3 3 3 3 3 4 4 5 5 5 6 8 8 7 7 6 7 14 23 24 25 26 26 27 26 26 26 26 25 25 25 24 24 23 23 22 21 21
2 2 2 3 3 2 3 3 3 3 4 5 5 5 5 6 6 7 8 9 9 8 8 15 24 25 26 27 28 28 28 28 28 28 27 27 27 26 26 25 25 24 23
2 2 2 3 3 3 3 4 4 4 4 5 6 7 6 6 6 8 10 9 8 9 9 9 10 14 24 27 27 29 29 30 30 30 29 29 29 29 28 28 27 26 26
2 2 2 3 3 3 4 5 4 5 4 3 4 5 6 9 11 11 10 9 10 10 9 9 7 7 9 22 26 27 28 30 31 31 31 31 31 31 30 30 29 29 28
2 2 3 3 3 4 5 5 4 4 4 3 3 3 5 5 6 8 7 8 9 7 8 9 8 8 7 6 14 25 26 28 29 30 31 32 32 32 32 32 31 31 30
2 2 3 3 3 3 4 5 5 5 5 4 4 4 4 5 4 4 5 5 5 4 5 6 8 9 9 8 8 18 26 28 29 29 30 31 32 33 33 33 33 33 32
1 1 2 3 3 3 4 5 5 4 5 5 4 5 7 6 5 6 4 4 5 6 7 7 7 8 9 8 11 19 25 27 28 29 29 30 30 32 33 33 34 34 34
1 2 2 2 3 4 5 5 5 5 4 5 5 5 6 6 7 8 10 6 6 7 8 9 8 7 9 9 8 14 25 27 28 28 28 29 30 31 32 33 33 34 34
2 2 2 2 4 4 5 5 5 6 6 6 6 5 6 6 6 7 10 9 8 6 7 6 6 7 7 8 11 19 24 26 27 28 28 28 28 29 30 32 32 33 34
3 3 3 3 4 5 5 6 6 6 6 7 7 7 6 7 6 7 10 11 11 7 7 6 7 7 7 7 8 18 22 26 27 27 27 27 27 28 29 30 31 32 33
3 4 4 5 6 6 6 6 5 7 6 7 9 8 7 7 6 7 7 9 14 11 7 8 6 7 7 6 9 16 14 24 25 25 25 25 26 27 28 29 30 31 32
4 5 6 6 6 7 7 7 5 7 7 7 8 8 8 7 6 7 7 7 10 16 14 7 5 5 6 6 10 9 7 17 24 24 24 24 25 26 27 28 29 30 31
5 6 6 7 7 7 7 7 6 7 7 7 6 8 8 7 6 6 7 7 7 12 18 8 6 6 7 8 15 12 8 22 24 25 25 25 25 26 27 28 28 29 30
6 6 7 7 7 8 7 7 7 8 8 8 8 8 9 8 7 6 6 7 7 8 16 14 6 6 7 8 10 8 9 9 10 23 27 27 27 27 27 27 28 28 29
6 7 7 8 8 8 8 8 8 8 8 9 8 8 9 9 9 8 7 8 8 8 12 19 11 6 8 8 9 10 10 10 8 19 27 28 28 27 27 27 27 27 28
7 7 8 8 8 8 8 8 9 9 9 9 8 9 10 10 12 10 10 11 10 11 10 14 15 8 7 7 9 10 11 10 11 16 23 25 27 27 27 27 27 27 27
8 8 8 9 9 9 9 9 9 9 9 9 9 10 11 12 13 13 12 12 11 11 11 12 14 11 8 8 8 8 9 8 9 10 15 18 22 25 26 26 26 26 25
9 9 9 9 9 8 8 9 8 9 9 10 10 11 12 17 22 19 15 11 11 11 11 12 13 12 10 7 8 7 10 8 8 8 8 9 9 8 10 18 22 24 24
8 9 9 9 9 9 18 24 19 10 9 10 10 10 12 16 20 26 28 26 22 15 12 12 12 13 12 10 8 8 10 10 10 5 8 9 7 8 7 7 17 23 24
9 9 9 9 10 11 22 25 25 16 10 9 10 11 12 13 20 13 19 25 23 26 26 17 15 14 13 11 10 12 11 12 12 5 6 9 6 8 7 11 21 23 23
8 8 9 9 9 12 23 26 26 15 10 10 11 12 13 13 13 17 13 13 13 14 18 14 12 13 14 12 12 13 13 13 12 8 8 10 8 8 8 7 18 22 22
8 8 9 9 9 12 21 25 25 10 9 10 10 11 13 13 21 27 18 14 14 13 18 24 25 23 26 26 21 11 9 10 11 7 6 7 7 7 6 7 11 21 22
9 9 9 8 9 10 19 25 25 9 9 9 9 10 18 21 25 27 16 13 15 13 12 13 16 18 16 17 23 14 9 10 10 7 6 6 6 5 5 5 6 7 10
Wind_Direction
184 194 208 216 222 218 210 215 225 241 243 241 235 233 238 239 236 231 234 245 249 252 256 258 258 258 258 257 256 254 252 251 251 250 248 248 247 246 247 247 248 247 248
191 198 212 220 224 228 231 228 237 245 248 245 245 243 242 241 240 238 231 242 248 250 254 257 259 258 257 256 255 254 253 250 249 248 247 246 246 245 244 245 245 246 246
204 206 214 223 225 227 231 237 250 258 262 261 259 258 255 249 246 244 241 232 239 247 252 256 258 260 259 258 256 255 254 253 251 249 247 245 244 244 243 243 243 243 243
216 220 225 232 234 235 235 239 243 255 260 258 257 256 254 251 249 246 243 239 232 235 247 254 257 259 260 260 259 257 255 254 253 251 249 247 244 243 243 242 241 241 241
235 234 239 244 249 249 244 244 244 242 256 263 266 264 259 257 257 256 251 245 239 235 232 249 256 260 262 263 263 261 258 255 253 252 250 249 246 244 243 242 241 240 240
262 255 251 257 261 258 254 246 248 249 250 257 270 272 265 261 259 257 255 252 246 242 238 239 246 256 260 264 266 266 264 261 257 254 252 250 248 246 244 242 241 240 239
261 254 256 263 259 254 254 252 251 258 261 260 281 288 272 255 252 252 249 247 245 242 237 237 235 235 252 259 264 267 268 266 264 260 255 252 250 248 246 244 242 240 239
261 244 243 250 252 253 260 260 254 258 262 245 244 294 304 300 263 252 249 242 242 238 237 239 238 238 236 238 251 261 267 269 269 266 262 258 253 251 248 246 244 242 239
262 254 249 253 261 255 254 254 247 245 254 250 214 218 259 273 307 292 280 274 265 256 248 245 243 241 239 233 240 255 260 266 269 270 269 266 261 256 252 249 246 244 242
253 260 268 269 269 266 264 261 254 244 243 253 249 228 229 234 267 292 278 278 286 278 271 265 256 247 241 237 239 246 257 262 266 269 270 270 268 264 258 254 250 247 244
281 260 257 271 273 268 267 267 270 262 248 245 243 245 251 252 243 261 277 269 262 255 257 256 254 250 245 239 235 244 255 261 265 268 270 271 271 269 266 261 256 251 247
311 300 281 273 272 269 267 265 262 260 255 254 252 244 242 243 246 252 269 272 269 260 257 259 260 258 253 247 244 249 253 259 263 266 268 269 271 271 271 268 264 259 254
313 309 316 295 283 273 268 265 262 259 255 255 253 252 248 247 246 252 267 277 277 272 262 258 257 263 264 256 253 252 253 259 262 264 266 267 269 270 270 270 268 266 261
292 298 299 286 280 279 276 269 264 258 257 253 256 256 255 253 250 249 257 275 283 281 262 256 253 257 267 269 267 262 260 262 264 264 266 267 269 270 269 268 267 266 264
290 293 291 287 283 280 278 275 267 265 262 257 256 257 257 256 252 252 252 250 269 284 281 261 253 256 268 276 279 281 268 269 271 270 268 268 268 269 269 268 267 265 263
295 296 292 289 287 286 284 281 278 273 271 267 262 263 263 261 258 255 253 254 251 268 280 274 252 248 261 273 280 282 278 282 279 277 274 273 271 270 269 267 266 264 262
300 297 294 293 290 287 285 283 281 283 281 282 282 280 277 276 274 268 265 262 260 261 276 282 263 256 257 264 273 272 274 273 273 276 276 274 272 271 270 269 267 264 262
302 298 296 292 289 289 287 285 286 287 285 286 287 289 290 293 289 286 280 276 272 267 273 283 283 268 260 262 265 266 271 270 262 271 273 273 272 271 270 269 267 265 263
298 296 294 292 290 288 285 281 280 280 279 280 283 285 287 287 284 281 278 277 275 276 272 278 283 278 268 264 266 266 264 265 266 269 270 271 271 271 271 270 268 265 263
294 292 288 286 284 283 282 281 278 277 275 274 274 275 278 277 278 278 277 273 272 271 268 270 276 277 271 261 258 264 269 259 262 264 267 267 267 268 268 269 269 268 265
288 285 284 283 281 282 282 282 277 272 272 274 275 274 275 278 279 281 279 271 265 266 268 268 271 273 272 266 262 260 267 267 259 251 256 258 259 256 259 266 269 269 268
284 284 283 283 283 287 296 299 300 289 279 280 283 281 281 284 285 285 285 286 282 277 274 272 276 275 276 271 268 265 269 272 271 233 244 254 245 247 244 240 254 260 263
284 284 283 283 284 288 300 303 302 300 289 284 284 285 287 286 290 282 283 284 285 284 281 278 276 275 276 271 268 270 267 266 268 252 248 261 247 251 245 250 254 255 257
283 284 286 286 287 293 303 304 305 300 287 282 280 281 282 282 281 284 277 273 270 271 273 274 266 266 266 263 255 259 264 266 264 253 239 260 253 248 247 240 250 253 256
286 285 285 287 288 295 302 304 303 291 285 281 279 282 286 285 287 291 290 284 282 277 279 278 275 275 273 274 270 262 255 261 266 255 222 242 250 248 242 237 242 249 253
285 286 286 285 287 290 299 304 304 293 289 288 284 281 288 292 294 296 292 286 286 284 279 278 277 277 276 274 277 269 259 264 268 264 220 222 239 233 247 234 229 234 245